Location: Newark
(25.5428°S, 54.5819°W)
Time: 05:46:26
(UTC+00:00)

Falcon 9 debris - Visible Passes

Search period start: 19 July 2019 00:00
Search period end: 29 July 2019 00:00
Orbit: 431 x 439 km, 53.0° (Epoch: 18 July)

Date Brightness Start Highest point End Pass type
(mag) Time Alt. Az. Time Alt. Az. Time Alt. Az.
21 Jul 5.6 22:45:58 10° SSW 22:46:36 14° SSW 22:46:36 14° SSW visible
22 Jul 4.4 22:04:06 10° S 22:06:56 22° SE 22:07:15 22° SE visible
23 Jul 4.7 22:58:26 10° WSW 23:01:40 35° NW 23:01:47 34° NW visible
24 Jul 3.5 22:15:58 10° SW 22:19:28 66° NW 22:22:55 10° NNE visible
25 Jul 3.1 21:33:42 10° SSW 21:37:13 65° SE 21:40:41 10° NE visible
26 Jul 6.6 22:30:21 10° W 22:31:38 12° WNW 22:32:57 10° NW visible
27 Jul 6.2 21:46:49 10° WSW 21:49:30 20° NW 21:52:09 10° N visible
